| time (UTC) | temp F | wind direction | speed MPH | gust MPH | rain 1hr in | rain 24hr in | rain mn in | humidity % | barometer mb |
| 20260507135657 | 47 | 57 | 3.0 | 3.0 | 0.00 | 0.00 | 0.00 | 75 | 1017.0 |
| 20260507134656 | 47 | 298 | 1.0 | 8.0 | 0.00 | 0.00 | 0.00 | 76 | 1017.2 |
| 20260507133654 | 47 | 13 | 2.0 | 8.0 | 0.00 | 0.00 | 0.00 | 77 | 1016.6 |
| 20260507132655 | 46 | 251 | 2.0 | 3.0 | 0.02 | 0.00 | 0.00 | 77 | 1016.8 |
| 20260507131654 | 47 | 9 | 2.0 | 3.0 | 0.00 | 0.00 | 0.00 | 74 | 1016.5 |
| 20260507130653 | 47 | 82 | 1.0 | 5.0 | 0.00 | 0.00 | 0.00 | 70 | 1016.1 |
| 20260507125650 | 47 | 241 | 1.0 | 5.0 | 0.00 | 0.00 | 0.00 | 69 | 1016.3 |
| 20260507124649 | 46 | 109 | 1.0 | 4.0 | 0.00 | 0.00 | 0.00 | 69 | 1016.4 |
| 20260507123645 | 46 | 102 | 0.0 | 4.0 | 0.00 | 0.00 | 0.00 | 68 | 1016.1 |
| 20260507122643 | 45 | 158 | 0.0 | 2.0 | 0.00 | 0.00 | 0.00 | 65 | 1016.0 |
| 20260507121641 | 45 | 94 | 0.0 | 2.0 | 0.00 | 0.00 | 0.00 | 64 | 1015.7 |
| 20260507120639 | 45 | 75 | 1.0 | 2.0 | 0.00 | 0.00 | 0.00 | 63 | 1015.5 |
| 20260507115638 | 44 | 94 | 0.0 | 4.0 | 0.00 | 0.00 | 0.00 | 62 | 1015.7 |
| 20260507114636 | 44 | 172 | 1.0 | 5.0 | 0.00 | 0.00 | 0.00 | 61 | 1015.6 |
| 20260507113631 | 44 | 184 | 1.0 | 5.0 | 0.00 | 0.00 | 0.00 | 61 | 1015.3 |
| 20260507112631 | 43 | 118 | 1.0 | 4.0 | 0.00 | 0.00 | 0.00 | 61 | 1015.1 |
| 20260507111631 | 44 | 316 | 2.0 | 6.0 | 0.00 | 0.00 | 0.00 | 59 | 1015.5 |
| 20260507110629 | 44 | 187 | 3.0 | 5.0 | 0.00 | 0.00 | 0.00 | 58 | 1015.4 |
| 20260507105629 | 44 | 152 | 2.0 | 9.0 | 0.00 | 0.00 | 0.00 | 56 | 1015.5 |
| 20260507104628 | 44 | 177 | 0.0 | 4.0 | 0.00 | 0.00 | 0.00 | 57 | 1015.3 |
| 20260507103626 | 43 | 200 | 4.0 | 4.0 | 0.00 | 0.00 | 0.00 | 59 | 1015.6 |
| 20260507102626 | 43 | 144 | 1.0 | 2.0 | 0.00 | 0.00 | 0.00 | 59 | 1015.6 |
| 20260507101624 | 44 | 110 | 2.0 | 3.0 | 0.00 | 0.00 | 0.00 | 57 | 1015.9 |
| 20260507100623 | 44 | 130 | 1.0 | 2.0 | 0.00 | 0.00 | 0.00 | 56 | 1016.0 |
| 20260507095619 | 43 | 100 | 0.0 | 3.0 | 0.00 | 0.00 | 0.00 | 57 | 1016.0 |
| 20260507094617 | 44 | 113 | 1.0 | 2.0 | 0.00 | 0.00 | 0.00 | 57 | 1016.1 |
| 20260507093612 | 44 | 102 | 1.0 | 4.0 | 0.00 | 0.00 | 0.00 | 56 | 1016.2 |
| 20260507092612 | 45 | 121 | 2.0 | 2.0 | 0.00 | 0.00 | 0.00 | 54 | 1016.3 |
| 20260507091612 | 45 | 189 | 1.0 | 3.0 | 0.00 | 0.00 | 0.00 | 53 | 1016.6 |
| 20260507090609 | 46 | 210 | 3.0 | 3.0 | 0.00 | 0.00 | 0.00 | 52 | 1016.9 |
| 20260507085609 | 46 | 163 | 0.0 | 2.0 | 0.00 | 0.00 | 0.00 | 53 | 1017.2 |
| 20260507084609 | 45 | 110 | 0.0 | 2.0 | 0.00 | 0.00 | 0.00 | 53 | 1017.0 |
| 20260507083608 | 45 | 127 | 1.0 | 2.0 | 0.00 | 0.00 | 0.00 | 53 | 1017.2 |
| 20260507082607 | 45 | 166 | 2.0 | 5.0 | 0.00 | 0.00 | 0.00 | 53 | 1017.0 |
| 20260507081606 | 44 | 111 | 2.0 | 3.0 | 0.00 | 0.00 | 0.00 | 53 | 1017.1 |
| 20260507080605 | 44 | 334 | 2.0 | 2.0 | 0.00 | 0.00 | 0.00 | 54 | 1017.3 |
| 20260507075602 | 44 | 151 | 0.0 | 2.0 | 0.00 | 0.00 | 0.00 | 54 | 1017.2 |
| 20260507074602 | 44 | 139 | 0.0 | 2.0 | 0.00 | 0.00 | 0.00 | 55 | 1017.5 |
| 20260507073602 | 44 | 115 | 0.0 | 2.0 | 0.00 | 0.00 | 0.00 | 55 | 1017.6 |
| 20260507072601 | 44 | 149 | 1.0 | 2.0 | 0.00 | 0.00 | 0.00 | 55 | 1017.6 |
| 20260507071601 | 44 | 135 | 0.0 | 3.0 | 0.00 | 0.00 | 0.00 | 55 | 1017.7 |
| 20260507070600 | 44 | 179 | 0.0 | 3.0 | 0.00 | 0.00 | 0.00 | 55 | 1017.8 |
| 20260507065559 | 44 | 178 | 1.0 | 3.0 | 0.00 | 0.00 | 0.00 | 55 | 1018.0 |
| 20260507064554 | 43 | 147 | 0.0 | 2.0 | 0.00 | 0.00 | 0.00 | 56 | 1018.3 |
| 20260507063549 | 43 | 118 | 1.0 | 2.0 | 0.00 | 0.00 | 0.00 | 57 | 1018.0 |
| 20260507062549 | 43 | 184 | 1.0 | 2.0 | 0.00 | 0.00 | 0.00 | 57 | 1018.3 |
| 20260507061544 | 43 | 161 | 0.0 | 2.0 | 0.00 | 0.00 | 0.00 | 57 | 1018.2 |
| 20260507060540 | 43 | 172 | 1.0 | 2.0 | 0.00 | 0.00 | 0.00 | 57 | 1018.5 |
| 20260507055537 | 43 | 128 | 0.0 | 2.0 | 0.00 | 0.00 | 0.00 | 57 | 1018.4 |
| 20260507054535 | 44 | 177 | 1.0 | 3.0 | 0.00 | 0.00 | 0.00 | 56 | 1018.6 |
| 20260507053530 | 44 | 184 | 2.0 | 3.0 | 0.00 | 0.00 | 0.00 | 54 | 1018.7 |
| 20260507052526 | 44 | 158 | 0.0 | 2.0 | 0.00 | 0.00 | 0.00 | 54 | 1018.7 |
| 20260507051526 | 44 | 144 | 1.0 | 3.0 | 0.00 | 0.00 | 0.00 | 53 | 1018.7 |
| 20260507050524 | 44 | 177 | 0.0 | 2.0 | 0.00 | 0.00 | 0.00 | 55 | 1018.6 |
| 20260507045523 | 44 | 147 | 2.0 | 2.0 | 0.00 | 0.00 | 0.00 | 54 | 1018.9 |
| 20260507044523 | 44 | 131 | 2.0 | 2.0 | 0.00 | 0.00 | 0.00 | 53 | 1018.9 |
| 20260507043522 | 45 | 161 | 1.0 | 1.0 | 0.00 | 0.00 | 0.00 | 53 | 1018.8 |
| 20260507042521 | 44 | 130 | 0.0 | 2.0 | 0.00 | 0.00 | 0.00 | 54 | 1018.9 |
| 20260507041520 | 44 | 130 | 0.0 | 2.0 | 0.00 | 0.00 | 0.00 | 53 | 1018.9 |
| 20260507040519 | 42 | 124 | 1.0 | 1.0 | 0.00 | 0.00 | 0.00 | 60 | 1019.2 |
| 20260507035517 | 41 | 86 | 1.0 | 1.0 | 0.00 | 0.00 | 0.00 | 59 | 1019.1 |
| 20260507034516 | 42 | 118 | 0.0 | 1.0 | 0.00 | 0.00 | 0.00 | 57 | 1019.2 |
| 20260507033512 | 42 | 121 | 0.0 | 2.0 | 0.00 | 0.00 | 0.00 | 57 | 1019.2 |
| 20260507032512 | 42 | 113 | 1.0 | 1.0 | 0.00 | 0.00 | 0.00 | 58 | 1019.4 |
| 20260507031510 | 43 | 102 | 1.0 | 1.0 | 0.00 | 0.00 | 0.00 | 55 | 1019.5 |
| 20260507030510 | 43 | 118 | 1.0 | 1.0 | 0.00 | 0.00 | 0.00 | 56 | 1019.4 |
| 20260507025510 | 43 | 115 | 0.0 | 1.0 | 0.00 | 0.00 | 0.00 | 55 | 1019.3 |
| 20260507024506 | 43 | 110 | 0.0 | 1.0 | 0.00 | 0.00 | 0.00 | 54 | 1019.4 |
| 20260507023504 | 44 | 124 | 0.0 | 1.0 | 0.00 | 0.00 | 0.00 | 55 | 1019.4 |
| 20260507022504 | 44 | 109 | 1.0 | 1.0 | 0.00 | 0.00 | 0.00 | 52 | 1019.6 |
| 20260507021501 | 45 | 110 | 0.0 | 0.0 | 0.00 | 0.00 | 0.00 | 52 | 1019.2 |
| 20260507020501 | 45 | 94 | 0.0 | 0.0 | 0.00 | 0.00 | 0.00 | 52 | 1019.3 |
| 20260507015457 | 46 | 102 | 0.0 | 1.0 | 0.00 | 0.00 | 0.00 | 49 | 1019.4 |
| 20260507014456 | 47 | 118 | 0.0 | 1.0 | 0.00 | 0.00 | 0.00 | 47 | 1019.1 |
| 20260507013454 | 48 | 103 | 0.0 | 1.0 | 0.00 | 0.00 | 0.00 | 43 | 1019.1 |
| 20260507012454 | 50 | 103 | 0.0 | 1.0 | 0.00 | 0.00 | 0.00 | 39 | 1019.4 |
| 20260507011454 | 51 | 33 | 0.0 | 1.0 | 0.00 | 0.00 | 0.00 | 37 | 1019.0 |
| 20260507010450 | 53 | 94 | 0.0 | 1.0 | 0.00 | 0.00 | 0.00 | 36 | 1019.1 |
| 20260507005450 | 53 | 4 | 2.0 | 4.0 | 0.00 | 0.00 | 0.00 | 32 | 1019.3 |
| 20260507004449 | 54 | 94 | 1.0 | 4.0 | 0.00 | 0.00 | 0.00 | 31 | 1019.0 |
| 20260507003448 | 55 | 172 | 0.0 | 5.0 | 0.00 | 0.00 | 0.00 | 30 | 1019.1 |
| 20260507002446 | 57 | 184 | 0.0 | 5.0 | 0.00 | 0.00 | 0.00 | 29 | 1019.1 |
| 20260507001445 | 55 | 315 | 0.0 | 5.0 | 0.00 | 0.00 | 0.00 | 30 | 1019.5 |
| 20260507000444 | 56 | 94 | 1.0 | 8.0 | 0.00 | 0.00 | 0.00 | 29 | 1019.4 |
| 20260506235444 | 57 | 78 | 0.0 | 6.0 | 0.00 | 0.00 | 0.00 | 28 | 1019.6 |
| 20260506234443 | 58 | 279 | 2.0 | 11.0 | 0.00 | 0.00 | 0.00 | 28 | 1019.5 |
| 20260506233442 | 59 | 294 | 3.0 | 6.0 | 0.00 | 0.00 | 0.00 | 27 | 1019.4 |
| 20260506232441 | 59 | 9 | 3.0 | 7.0 | 0.00 | 0.00 | 0.00 | 28 | 1019.4 |
| 20260506231441 | 55 | 58 | 0.0 | 7.0 | 0.00 | 0.00 | 0.00 | 30 | 1019.8 |
| 20260506230440 | 56 | 38 | 3.0 | 10.0 | 0.00 | 0.00 | 0.00 | 30 | 1019.9 |
| 20260506225440 | 56 | 322 | 3.0 | 5.0 | 0.00 | 0.00 | 0.00 | 31 | 1019.8 |
| 20260506224440 | 56 | 85 | 3.0 | 12.0 | 0.00 | 0.00 | 0.00 | 29 | 1019.8 |
| 20260506223438 | 55 | 343 | 3.0 | 9.0 | 0.00 | 0.00 | 0.00 | 31 | 1019.8 |
| 20260506222437 | 57 | 282 | 6.0 | 6.0 | 0.00 | 0.00 | 0.00 | 30 | 1019.8 |
| 20260506221437 | 57 | 94 | 1.0 | 11.0 | 0.00 | 0.00 | 0.00 | 29 | 1019.9 |
| 20260506220436 | 56 | 78 | 1.0 | 6.0 | 0.00 | 0.00 | 0.00 | 31 | 1019.9 |
| 20260506215435 | 57 | 20 | 7.0 | 11.0 | 0.00 | 0.00 | 0.00 | 29 | 1019.8 |
| 20260506214434 | 56 | 14 | 9.0 | 19.0 | 0.00 | 0.00 | 0.00 | 30 | 1020.0 |
| 20260506213429 | 56 | 238 | 4.0 | 10.0 | 0.00 | 0.00 | 0.00 | 30 | 1019.8 |
| 20260506212427 | 56 | 89 | 2.0 | 8.0 | 0.00 | 0.00 | 0.00 | 32 | 1019.9 |
| 20260506211423 | 56 | 146 | 4.0 | 9.0 | 0.00 | 0.00 | 0.00 | 31 | 1020.1 |
| 20260506210422 | 56 | 277 | 3.0 | 11.0 | 0.00 | 0.00 | 0.00 | 30 | 1020.2 |
| 20260506205420 | 56 | 346 | 5.0 | 6.0 | 0.00 | 0.00 | 0.00 | 32 | 1020.1 |
| 20260506204420 | 57 | 68 | 3.0 | 9.0 | 0.00 | 0.00 | 0.00 | 30 | 1020.4 |
| 20260506203420 | 57 | 7 | 5.0 | 9.0 | 0.00 | 0.00 | 0.00 | 30 | 1020.6 |
| 20260506202420 | 57 | 274 | 3.0 | 17.0 | 0.00 | 0.00 | 0.00 | 31 | 1020.4 |
| 20260506201420 | 56 | 52 | 0.0 | 6.0 | 0.00 | 0.00 | 0.00 | 33 | 1020.6 |
| 20260506200418 | 56 | 46 | 3.0 | 9.0 | 0.00 | 0.00 | 0.00 | 32 | 1020.6 |
| 20260506195418 | 55 | 338 | 3.0 | 7.0 | 0.00 | 0.00 | 0.00 | 31 | 1020.7 |
| 20260506194418 | 55 | 31 | 8.0 | 8.0 | 0.00 | 0.00 | 0.00 | 32 | 1020.8 |
| 20260506193418 | 55 | 204 | 1.0 | 14.0 | 0.00 | 0.00 | 0.00 | 31 | 1020.8 |
| 20260506192417 | 55 | 6 | 4.0 | 6.0 | 0.00 | 0.00 | 0.00 | 34 | 1020.7 |
| 20260506191416 | 55 | 210 | 3.0 | 13.0 | 0.00 | 0.00 | 0.00 | 32 | 1020.7 |
| 20260506190415 | 54 | 14 | 7.0 | 7.0 | 0.00 | 0.00 | 0.00 | 33 | 1020.8 |
| 20260506185416 | 54 | 42 | 7.0 | 7.0 | 0.00 | 0.00 | 0.00 | 32 | 1020.9 |
| 20260506184415 | 55 | 303 | 3.0 | 10.0 | 0.00 | 0.00 | 0.00 | 33 | 1021.2 |
| 20260506183414 | 55 | 75 | 2.0 | 13.0 | 0.00 | 0.00 | 0.00 | 33 | 1021.2 |
| 20260506182414 | 54 | 78 | 3.0 | 13.0 | 0.00 | 0.00 | 0.00 | 34 | 1021.0 |
| 20260506181409 | 53 | 277 | 4.0 | 13.0 | 0.00 | 0.00 | 0.00 | 34 | 1021.4 |
| 20260506180408 | 54 | 199 | 4.0 | 12.0 | 0.00 | 0.00 | 0.00 | 38 | 1021.5 |
| 20260506175408 | 52 | 55 | 2.0 | 7.0 | 0.00 | 0.00 | 0.00 | 36 | 1021.4 |
| 20260506174402 | 52 | 356 | 7.0 | 14.0 | 0.00 | 0.00 | 0.00 | 35 | 1021.7 |
| 20260506173402 | 52 | 358 | 1.0 | 8.0 | 0.00 | 0.00 | 0.00 | 37 | 1021.7 |
| 20260506172401 | 51 | 36 | 5.0 | 8.0 | 0.00 | 0.00 | 0.00 | 37 | 1021.8 |
| 20260506171356 | 51 | 354 | 3.0 | 14.0 | 0.00 | 0.00 | 0.00 | 38 | 1021.8 |
| 20260506170355 | 51 | 338 | 3.0 | 13.0 | 0.00 | 0.00 | 0.00 | 37 | 1022.0 |
| 20260506165352 | 51 | 18 | 3.0 | 9.0 | 0.00 | 0.00 | 0.00 | 36 | 1021.9 |
| 20260506164351 | 51 | 6 | 3.0 | 9.0 | 0.00 | 0.00 | 0.00 | 37 | 1021.9 |
| 20260506163349 | 51 | 8 | 11.0 | 11.0 | 0.00 | 0.00 | 0.00 | 36 | 1021.8 |
| 20260506162349 | 53 | 357 | 3.0 | 4.0 | 0.00 | 0.00 | 0.00 | 39 | 1021.8 |
| 20260506161343 | 51 | 309 | 0.0 | 8.0 | 0.00 | 0.00 | 0.00 | 38 | 1021.9 |
| 20260506160343 | 51 | 16 | 0.0 | 7.0 | 0.00 | 0.00 | 0.00 | 40 | 1021.5 |
| 20260506155339 | 51 | 257 | 0.0 | 7.0 | 0.00 | 0.00 | 0.00 | 38 | 1021.5 |
| 20260506153456 | 51 | 274 | 1.0 | 4.0 | 0.00 | 0.00 | 0.00 | 43 | 1021.8 |
| 20260506152456 | 50 | 165 | 3.0 | 8.0 | 0.00 | 0.00 | 0.00 | 41 | 1021.7 |
| 20260506151451 | 49 | 4 | 2.0 | 8.0 | 0.00 | 0.00 | 0.00 | 45 | 1021.5 |
| 20260506150450 | 49 | 177 | 0.0 | 3.0 | 0.00 | 0.00 | 0.00 | 48 | 1021.4 |
| 20260506145449 | 48 | 36 | 1.0 | 7.0 | 0.00 | 0.00 | 0.00 | 46 | 1021.5 |
| 20260506144449 | 48 | 343 | 0.0 | 4.0 | 0.00 | 0.00 | 0.00 | 49 | 1021.5 |
| 20260506143444 | 48 | 341 | 0.0 | 8.0 | 0.00 | 0.00 | 0.00 | 45 | 1021.7 |
| 20260506142440 | 47 | 61 | 0.0 | 3.0 | 0.00 | 0.00 | 0.00 | 48 | 1021.7 |
| 20260506141436 | 47 | 70 | 1.0 | 3.0 | 0.00 | 0.00 | 0.00 | 49 | 1021.4 |
| 20260506140431 | 46 | 58 | 0.0 | 3.0 | 0.00 | 0.00 | 0.00 | 51 | 1021.3 |